Simultaneous Nadir Overpasses (SNOs) Predictions

Prediction of SNOs between GOES-17 and METOP-B Satellite Orbit:

Table of predicted SNOs for the next 14.0 days since TLE Epoch: 7/16/2022
Index Date Time (GOES-17) GOES-17 Lat,Lon METOP-B Lat,Lon Distance(km) Time Diff (sec)
1 07/17/2022 18:38:45 0.00,-137.29 -0.09,-136.86 49.10 80
2 07/19/2022 06:55:06 0.00,-137.29 -0.91,-141.46 474.71 80
3 07/20/2022 06:37:06 0.00,-137.30 0.21,-136.47 94.91 80
4 07/21/2022 18:53:18 -0.00,-137.31 0.82,-141.03 423.95 80
5 07/22/2022 18:35:18 0.00,-137.30 -0.31,-136.04 145.38 80
6 07/24/2022 06:51:37 -0.00,-137.29 -0.74,-140.62 379.30 80
7 07/25/2022 06:33:38 -0.01,-137.29 0.39,-135.63 189.52 80
8 07/26/2022 18:49:49 0.02,-137.28 0.64,-140.19 330.61 80
9 07/27/2022 18:31:49 0.02,-137.28 -0.43,-135.19 237.94 80
10 07/29/2022 06:50:48 -0.01,-137.26 -0.60,-139.78 287.98 80
